BEIDOU-3 M21

Last updated on Tue Sep 22 2026 00:03:02 GMT+0000 (Coordinated Universal Time)

1 44794U 19078B 26264.33812216 -.00000014 00000+0 00000+0 0 9993 2 44794 53.8190 296.3951 0002837 28.5345 331.5435 1.86228024 46443
UTC large
Height (km)
Speed (km/s)
/
Latitude / Longitude
Inclination (degrees)
Orbital Period (minutes)
Azimuth
Elevation
Range (km)
Doppler Factor

Next 0 passes for location: London (51.5072 / 0.1276)

No passes found over London.
BEIDOU-3 M21